Location: Unspecified
(50.7693°N, 0.0000°E)
Time: 09:30:08
(UTC+00:00)

Vanguard 1 - Pass Details

Date: 23 June 2019
Orbit: 653 x 3830 km, 34.3° (Epoch: 17 July)

Event Time Altitude Azimuth Distance (km) Brightness Sun altitude
Exits shadow 01:32:32 15° 198° (SSW) 5,887 13.3 -13.2°
Maximum altitude 01:43:31 26° 159° (SSE) 4,246 12.9 -12.5°
Drops below altitude 10° 01:53:21 10° 109° (ESE) 4,415 13.5 -11.8°
Sets 01:56:54 0° 97° (E) 4,988 14.0 -11.6°
